Regional Weather Roundup
Issued by NWS Wakefield, VA

Home | Current Version | Previous Version | Text Only | Print | Product List | Glossary Off
Versions: 1 2 3 4 5 6 7 8 9 10 11 12 13 14 15 16 17 18 19 20 21 22 23 24 25 26 27 28 29 30 31 32 33 34 35 36 37 38 39 40 41 42 43 44 45 46 47 48 49 50

000
ASUS41 KAKQ 182215
RWRAKQ

REGIONAL WEATHER ROUNDUP
NATIONAL WEATHER SERVICE WAKEFIELD VA
500 PM EST SAT FEB 18 2017

Note: "fair" indicates few or no clouds below 12,000 feet with no
significant weather and/or obstructions to visibility. * = Denotes
station may not report precipitation (e.g., rain,snow,etc.),
thunder or fog.

VAZ042-051-052>054-056-182300-
NORTHERN VIRGINIA

CITY           SKY/WX    TMP DP  RH WIND       PRES   REMARKS
WASH NATIONAL  CLOUDY    62  36  37 S9        29.75S
DULLES         MOCLDY    69  27  20 SW10      29.74F
FORT BELVOIR   CLOUDY    69  32  25 S5        29.75S
QUANTICO       PTCLDY    70  30  22 SW5       29.76F
FREDERICKSBRG* PTCLDY    70  36  29 SW6       29.75S
STAFFORD*      PTCLDY    69  31  24 SW3       29.80S
WARRENTON      PTCLDY    69  20  15 SW5       29.75F
CULPEPER*      CLOUDY    69  32  25 SW7       29.76S
MANASSAS*      CLEAR     68  31  25 SW5       29.75S
LEESBURG*      CLEAR     72  36  26 SW9       29.75S
WINCHESTER     CLEAR     64  32  29 SW9       29.75S
FRONT ROYAL*   PTCLDY    64  32  29 S6        29.75F
LURAY*         CLOUDY    64  36  34 SW3       29.77S
$$

VAZ048-049-060>072-079>083-182300-
CENTRAL AND SOUTH CENTRAL VIRGINIA

CITY           SKY/WX    TMP DP  RH WIND       PRES   REMARKS
RICHMOND       CLOUDY    70  30  22 SW12      29.80R
CHESTERFIELD*  FAIR      70  28  21 SW6       29.82R
PETERSBURG*    CLOUDY    69  28  21 SW6       29.82S
HANOVER        CLOUDY    70  27  20 SW13      29.80S
TAPPAHANNOCK*  CLOUDY    72  15  11 S10G20    29.78S
QUINTON*       FAIR      70  29  21 SW7       29.78S
CHARLOTTSVILLE CLOUDY    68  31  25 S6        29.78S
GORDONSVILLE*  CLOUDY    68  32  25 SW6       29.78R
ORANGE*        CLOUDY    68  30  24 S9        29.79R
LOUISA*        CLOUDY    73  34  23 SW6       29.78R
BUMPASS*       FAIR      70  28  20 SW8G16    29.78R
FARMVILLE*     PTCLDY    73  26  17 SW9G16    29.79S
CREWE*         FAIR      70  30  22 SW8       29.81S
FORT PICKETT*  FAIR      69  15  12 SW9       29.82R
CHASE CITY*    FAIR      69  25  19 S5        29.83S
CLARKSVILLE*   FAIR      68  32  26 S7        29.84S
SOUTH HILL*    PTCLDY    67  32  26 S8        29.89S
LAWRENCEVILLE* FAIR      69  27  20 SW8G18    29.83S
EMPORIA*       PTCLDY    70  32  24 S8        29.85S
$$

VAZ088>098-182300-
SOUTHEAST VIRGINIA

CITY           SKY/WX    TMP DP  RH WIND       PRES   REMARKS
NORFOLK        PTCLDY    69  37  30 SW12      29.80S
VIRGINIA BEACH CLOUDY    69  35  28 SW14      29.81S
NORFOLK NAVAL  CLOUDY    69  36  29 SW9       29.82S
WEST POINT*    CLOUDY    67  33  28 S3        29.80S
SALUDA*        FAIR      68  38  32 SW7       29.78S
NEWPORT NEWS   CLOUDY    66  37  34 SW9       29.81S
LANGLEY AFB    CLOUDY    69  36  29 SW10      29.80S
FORT EUSTIS    CLOUDY    68  36  31 SW5       29.78S
WILLIAMSBURG*  PTCLDY    72  37  28 SW6       29.81S
HR EXEC AP*    FAIR      70  34  26 SW8       29.81R
FRANKLIN*      CLOUDY    69  33  26 SW8       29.84R
US460-WAKEFLD  CLOUDY    69  35  28 SW7       29.82R
$$

VAZ020-022-025-037-045-182300-
WEST CENTRAL AND SOUTHWEST VIRGINIA

CITY           SKY/WX    TMP DP  RH WIND       PRES   REMARKS
STAUNTON*      CLOUDY    64  31  28 S7        29.82S
WAYNESBORO*    CLOUDY    64  29  26 SW5       29.82S
HOT SPRINGS VA CLOUDY    52  21  30 W17       29.89R
LYNCHBURG      CLOUDY    68  26  20 S13       29.83R
DANVILLE       CLOUDY    69  26  20 SW14      29.84S
SOUTH BOSTON*  FAIR      70  25  18 SW5       29.83S
MARTINSVILLE   CLOUDY    67  24  20 SW6       29.88R
ROANOKE        CLOUDY    67  29  24 W10       29.84F
BLACKSBURG     CLOUDY    62  32  32 CALM      29.89F
DUBLIN*        PTSUNNY   62  30  30 W5        29.88S
MARION*        CLOUDY    56  31  39 W12       29.92F
HILLSVILLE*    CLOUDY    60  30  32 CALM      29.87F
RICHLANDS*     MOCLDY    53  30  41 CALM      29.90F
WISE*          CLOUDY    52  32  46 CALM      29.91F
ABINGDON*      CLOUDY    56  32  39 W5        29.91F
$$

MDZ021>025-VAZ099-100-182300-
SOUTHERN MARYLAND AND THE DELMARVA PENINSULA

CITY           SKY/WX    TMP DP  RH WIND       PRES   REMARKS
PATUXENT RIVER CLOUDY    53  43  68 SE6       29.76S
BAY BRIDGE APT CLOUDY    61  36  39 S9        29.75S
LEONARDTOWN    PTCLDY    64  36  34 SW3       29.78S
DOVER          MOCLDY    63  38  39 S16       29.73R
GEORGETOWN     PTCLDY    65  33  30 SW12      29.77S
EASTON         NOT AVBL
CAMBRIDGE      CLOUDY    55  41  58 SE6       29.76F
SALISBURY      PTCLDY    63  34  33 SW8       29.77S
OCEAN CITY     PTCLDY    59  35  40 SW9G17    29.79S
WALLOPS ISLAND PTCLDY    52  41  66 S14       29.80S
ACCOMACK*      MOCLDY    59  38  45 S7        29.79F
$$

NCZ012>017-030>032-182300-
NORTH CENTRAL AND EASTERN NORTH CAROLINA

CITY           SKY/WX    TMP DP  RH WIND       PRES   REMARKS
ROANOKE RAPIDS FAIR      68  36  30 S13       29.85S
RALEIGH        CLOUDY    69  34  27 SW13      29.88S
ELIZABETH CITY PTCLDY    66  39  37 SW14      29.85F
AHOSKIE*         N/A     67  36  31 SW5       29.86S
EDENTON*       PTCLDY    67  39  35 SW7       29.88R
CURRITUCK*     PTCLDY    68  39  34 SW9       29.84F
KILL DEVIL HLS NOT AVBL
MANTEO         PTCLDY    58  45  61 SW12      29.88S
CAPE HATTERAS  CLOUDY    63  53  70 SW12      29.92R HAZE
TARBORO*       NOT AVBL
GOLDSBORO      PTSUNNY   70  33  25 SW14      29.89R
WASHINGTON     PTCLDY    69  38  31 SW7       29.89S
GREENVILLE     PTCLDY    70  36  28 W6        29.90F
NEW BERN       PTCLDY    67  43  41 S9        29.92R
WILMINGTON     MOSUNNY   66  41  40 SW9       29.95S
$$

VAZ048-182300-
ELSEWHERE

CITY           SKY/WX    TMP DP  RH WIND       PRES   REMARKS
HARRISBURG PA  MOCLDY    67  32  27 SW9       29.69R
BALTIMORE      CLOUDY    67  30  25 SW8       29.73S
ANNAPOLIS      PTCLDY    53  39  59 SE5       29.75R
ANDREWS AFB    PTCLDY    68  33  28 SW13      29.74S
PHILADELPHIA   MOCLDY    66  33  29 SW12      29.72R
HENDERSON NC   CLOUDY    65  29  25 SW7       29.86S
GREENSBORO     LGT RAIN  66  30  26 SW10      29.87R
ROCKY MOUNT    PTSUNNY   67  39  35 SW7       29.88S
$$

VAZ100-182300-
MARINE

STATION/POSITION TIME  TEMP    WIND        PRES    WAVE   SWELL
                       AIR SEA DIR/SP/G            HT/PER HT/PER
                 (UTC) (F)     (DEG/KT/KT) (MB)    (FT/S) (FT/S)
CAPE MAY NJ      2148   56 39  190/  6/  8 1007.1F
LEWES DE         2148   66 40  230/  7/ 10 1007.4S
OCEAN-CITY-INLET 2148   51 42  220/  9/ 12 1008.9S
WACHAPREAGUE VA  2148   53 46  220/  6/  8 1009.0F
THOMAS POINT MD  2200   48 40  180/ 14/ 15   N/A
GOOSES REEF MD   2200   45 40  150/ 12/ 14 1008.3    1/ 2
COVE POINT MD    2148   46     170/  9/ 10 1008.2F
SOLOMONS ISLAND  2148   60 42  220/  6/  9   N/A
BISHOPS HEAD MD  2148   52 45  180/ 12/ 13 1008.3F
PINEY POINT MD   2148          170/  1/  2   N/A
POTOMAC MD       2200   50 42  170/  4/  6 1007.0    1/ 2
CAMBRIDGE MD     2148   59 39  180/  5/  9 1007.3F
LEWISETTA VA     2148   67 43  240/  8/ 10 1007.4F
RAPPAHANNOCK LGT 2148          180/ 18/ 18 1009.2F
YORK RVR RNG VA  2148   64     230/ 14/ 15 1008.2S
YORKTOWN VA      2148   69 44  220/  9/ 12 1008.6R
JAMESTOWN VA     2200   67 47  210/  8/  8   N/A     0
DOMINION TERM VA 2148   60     240/  9/ 12 1009.4S
KIPTOPEKE VA     2148      46  210/  4/  6   N/A
CHES BAY BRIDGE  2148   67 45  230/ 13/ 15 1009.0R
CAPE HENRY VA    2148   69     200/  3/  5   N/A
WILLOUBY STN VA  2148   66     230/ 15/ 16 1009.9F
S CRANEY ISL VA  2148   69     210/  6/ 11 1009.1F
CAPE HENRY BUOY  2142      46                N/A     2/ 3
OFFSHORE WE BUOY 2151      47                N/A     2/ 5
64NM E OF VA BCH 2150   55 52  210/ 17/ 21 1010.0F   2/ 5   2/ 8
DUCK PIER NC     2148   64 47  200/ 12/ 15 1010.4F
44100 DUCK FRF   2135      48                N/A     2/ 9
44056 DUCK FRF   2130      48                N/A     1/11
OREGON INLET NC  2148          190/ 13/ 15 1011.9F
HATTERAS NC      2148   62 55  220/ 11/ 17 1012.7S
DIAMOND SHLS NC  2150   67 69  220/ 21/ 25 1013.1F   4/ 5   2/ 7
CAPE LOOKOUT NC  2200   60     210/ 12/ 15 1013.8R
$$



USA.gov is the U.S. government's official web portal to all federal, state and local government web resources and services.